Time,TemperatureF,DewpointF,PressureIn,WindDirection,WindDirectionDegrees,WindSpeedMPH,WindSpeedGustMPH,Humidity,HourlyPrecipIn,Conditions,Clouds,dailyrainin,SolarRadiationWatts/m^2,SoftwareType,DateUTC
2013-11-14 00:03:00,40.0,28.0,-100.00,WSW,250,7.0,14.0,63,0.00,,,0.00,0.000000,,2013-11-14 05:03:00,
2013-11-14 00:12:00,39.0,29.0,-100.00,WSW,242,5.0,12.0,66,0.00,,,0.00,0.000000,,2013-11-14 05:12:00,
2013-11-14 00:44:00,39.0,29.0,-100.00,WSW,242,5.0,12.0,66,0.00,,,0.00,0.000000,,2013-11-14 05:44:00,
2013-11-14 00:53:00,39.0,29.0,-100.00,WSW,242,5.0,12.0,66,0.00,,,0.00,0.000000,,2013-11-14 05:53:00,
2013-11-14 01:03:00,39.0,29.0,-100.00,WSW,242,5.0,12.0,66,0.00,,,0.00,0.000000,,2013-11-14 06:03:00,
2013-11-14 01:42:00,37.0,28.0,-100.00,SW,236,5.0,10.0,70,0.00,,,0.00,0.000000,,2013-11-14 06:42:00,
2013-11-14 01:52:00,37.0,28.0,-100.00,SW,236,5.0,10.0,70,0.00,,,0.00,0.000000,,2013-11-14 06:52:00,
2013-11-14 02:02:00,37.0,28.0,-100.00,SW,236,5.0,10.0,70,0.00,,,0.00,0.000000,,2013-11-14 07:02:00,
2013-11-14 02:11:00,37.0,28.0,-100.00,SW,236,5.0,10.0,70,0.00,,,0.00,0.000000,,2013-11-14 07:11:00,
2013-11-14 02:12:00,36.0,28.0,-100.00,SW,229,5.0,13.0,72,0.00,,,0.00,0.000000,,2013-11-14 07:12:00,
2013-11-14 02:42:00,36.0,28.0,-100.00,SW,229,5.0,13.0,72,0.00,,,0.00,0.000000,,2013-11-14 07:42:00,
2013-11-14 02:53:00,36.0,28.0,-100.00,SW,229,5.0,13.0,72,0.00,,,0.00,0.000000,,2013-11-14 07:53:00,
2013-11-14 03:01:00,36.0,28.0,-100.00,SW,229,5.0,13.0,72,0.00,,,0.00,0.000000,,2013-11-14 08:01:00,
2013-11-14 03:42:00,36.0,27.0,-100.00,SW,228,5.0,12.0,70,0.00,,,0.00,0.000000,,2013-11-14 08:42:00,
2013-11-14 03:53:00,36.0,27.0,-100.00,SW,228,5.0,12.0,70,0.00,,,0.00,0.000000,,2013-11-14 08:53:00,
2013-11-14 04:02:00,36.0,27.0,-100.00,SW,228,5.0,12.0,70,0.00,,,0.00,0.000000,,2013-11-14 09:02:00,
2013-11-14 04:11:00,36.0,27.0,-100.00,SW,228,5.0,12.0,70,0.00,,,0.00,0.000000,,2013-11-14 09:11:00,
2013-11-14 04:12:00,34.0,26.0,-100.00,SW,232,5.0,11.0,73,0.00,,,0.00,0.000000,,2013-11-14 09:12:00,
2013-11-14 04:43:00,34.0,26.0,-100.00,SW,232,5.0,11.0,73,0.00,,,0.00,0.000000,,2013-11-14 09:43:00,
2013-11-14 04:53:00,34.0,26.0,-100.00,SW,232,5.0,11.0,73,0.00,,,0.00,0.000000,,2013-11-14 09:53:00,
2013-11-14 05:03:00,34.0,26.0,-100.00,SW,232,5.0,11.0,73,0.00,,,0.00,0.000000,,2013-11-14 10:03:00,
2013-11-14 05:43:00,34.0,26.0,-100.00,SW,230,6.0,12.0,73,0.00,,,0.00,0.000000,,2013-11-14 10:43:00,
2013-11-14 05:52:00,34.0,26.0,-100.00,SW,230,6.0,12.0,73,0.00,,,0.00,0.000000,,2013-11-14 10:52:00,
2013-11-14 06:02:00,34.0,26.0,-100.00,SW,230,6.0,12.0,73,0.00,,,0.00,0.000000,,2013-11-14 11:02:00,
2013-11-14 06:11:00,34.0,26.0,-100.00,SW,230,6.0,12.0,73,0.00,,,0.00,0.000000,,2013-11-14 11:11:00,
2013-11-14 06:12:00,33.0,26.0,-100.00,WSW,243,6.0,13.0,74,0.00,,,0.00,0.000000,,2013-11-14 11:12:00,
2013-11-14 06:42:00,33.0,26.0,-100.00,WSW,243,6.0,13.0,74,0.00,,,0.00,0.000000,,2013-11-14 11:42:00,
2013-11-14 06:52:00,33.0,26.0,-100.00,WSW,243,6.0,13.0,74,0.00,,,0.00,0.000000,,2013-11-14 11:52:00,
2013-11-14 07:02:00,33.0,26.0,-100.00,WSW,243,6.0,13.0,74,0.00,,,0.00,0.000000,,2013-11-14 12:02:00,
2013-11-14 07:42:00,33.0,25.0,-100.00,SW,234,6.0,10.0,73,0.00,,,0.00,0.000000,,2013-11-14 12:42:00,
2013-11-14 07:52:00,33.0,25.0,-100.00,SW,234,6.0,10.0,73,0.00,,,0.00,0.000000,,2013-11-14 12:52:00,
2013-11-14 08:02:00,33.0,25.0,-100.00,SW,234,6.0,10.0,73,0.00,,,0.00,0.000000,,2013-11-14 13:02:00,
2013-11-14 08:11:00,33.0,25.0,-100.00,SW,234,6.0,10.0,73,0.00,,,0.00,0.000000,,2013-11-14 13:11:00,
2013-11-14 08:42:00,34.0,26.0,-100.00,SW,218,5.0,11.0,72,0.00,,,0.00,2.000000,,2013-11-14 13:42:00,
2013-11-14 08:52:00,34.0,26.0,-100.00,SW,218,5.0,11.0,72,0.00,,,0.00,2.000000,,2013-11-14 13:52:00,
2013-11-14 09:02:00,34.0,26.0,-100.00,SW,218,5.0,11.0,72,0.00,,,0.00,2.000000,,2013-11-14 14:02:00,
2013-11-14 09:11:00,34.0,26.0,-100.00,SW,218,5.0,11.0,72,0.00,,,0.00,2.000000,,2013-11-14 14:11:00,
2013-11-14 09:42:00,35.0,27.0,-100.00,WSW,241,5.0,10.0,71,0.00,,,0.00,13.000000,,2013-11-14 14:42:00,
2013-11-14 09:52:00,35.0,27.0,-100.00,WSW,241,5.0,10.0,71,0.00,,,0.00,13.000000,,2013-11-14 14:52:00,
2013-11-14 10:02:00,35.0,27.0,-100.00,WSW,241,5.0,10.0,71,0.00,,,0.00,13.000000,,2013-11-14 15:02:00,
2013-11-14 10:11:00,35.0,27.0,-100.00,WSW,241,5.0,10.0,71,0.00,,,0.00,13.000000,,2013-11-14 15:11:00,
2013-11-14 10:12:00,35.0,26.0,-100.00,WSW,241,5.0,10.0,70,0.00,,,0.00,44.000000,,2013-11-14 15:12:00,
2013-11-14 10:43:00,35.0,26.0,-100.00,WSW,241,5.0,10.0,70,0.00,,,0.00,44.000000,,2013-11-14 15:43:00,
2013-11-14 10:53:00,35.0,26.0,-100.00,WSW,241,5.0,10.0,70,0.00,,,0.00,44.000000,,2013-11-14 15:53:00,
2013-11-14 11:03:00,35.0,26.0,-100.00,WSW,241,5.0,10.0,70,0.00,,,0.00,44.000000,,2013-11-14 16:03:00,
2013-11-14 11:12:00,37.0,28.0,-100.00,WSW,241,4.0,11.0,70,0.00,,,0.00,52.000000,,2013-11-14 16:12:00,
2013-11-14 11:42:00,37.0,28.0,-100.00,WSW,241,4.0,11.0,70,0.00,,,0.00,52.000000,,2013-11-14 16:42:00,
2013-11-14 11:52:00,37.0,28.0,-100.00,WSW,241,4.0,11.0,70,0.00,,,0.00,52.000000,,2013-11-14 16:52:00,
2013-11-14 12:02:00,37.0,28.0,-100.00,WSW,241,4.0,11.0,70,0.00,,,0.00,52.000000,,2013-11-14 17:02:00,
2013-11-14 12:12:00,39.0,29.0,-100.00,SW,221,3.0,9.0,66,0.00,,,0.00,165.000000,,2013-11-14 17:12:00,
2013-11-14 12:42:00,39.0,29.0,-100.00,SW,221,3.0,9.0,66,0.00,,,0.00,165.000000,,2013-11-14 17:42:00,
2013-11-14 12:52:00,39.0,29.0,-100.00,SW,221,3.0,9.0,66,0.00,,,0.00,165.000000,,2013-11-14 17:52:00,
2013-11-14 13:02:00,39.0,29.0,-100.00,SW,221,3.0,9.0,66,0.00,,,0.00,165.000000,,2013-11-14 18:02:00,
2013-11-14 13:42:00,40.0,29.0,-100.00,SW,235,3.0,7.0,65,0.00,,,-99.99,140.000000,,2013-11-14 18:42:00,
2013-11-14 13:52:00,40.0,29.0,-100.00,SW,235,3.0,7.0,65,0.00,,,-99.99,140.000000,,2013-11-14 18:52:00,
2013-11-14 14:01:00,40.0,29.0,-100.00,SW,235,3.0,7.0,65,0.00,,,-99.99,140.000000,,2013-11-14 19:01:00,
2013-11-14 14:11:00,40.0,29.0,-100.00,SW,235,3.0,7.0,65,0.00,,,-99.99,140.000000,,2013-11-14 19:11:00,
2013-11-14 14:12:00,40.0,30.0,-100.00,SW,214,3.0,7.0,67,0.00,,,0.00,100.000000,,2013-11-14 19:12:00,
2013-11-14 14:42:00,40.0,30.0,-100.00,SW,214,3.0,7.0,67,0.00,,,0.00,100.000000,,2013-11-14 19:42:00,
2013-11-14 14:52:00,40.0,30.0,-100.00,SW,214,3.0,7.0,67,0.00,,,0.00,100.000000,,2013-11-14 19:52:00,
2013-11-14 15:02:00,40.0,30.0,-100.00,SW,214,3.0,7.0,67,0.00,,,0.00,100.000000,,2013-11-14 20:02:00,
2013-11-14 15:42:00,38.0,29.0,-100.00,SSE,165,4.0,8.0,70,0.00,,,0.00,65.000000,,2013-11-14 20:42:00,
2013-11-14 15:52:00,38.0,29.0,-100.00,SSE,165,4.0,8.0,70,0.00,,,0.00,65.000000,,2013-11-14 20:52:00,
2013-11-14 16:02:00,38.0,29.0,-100.00,SSE,165,4.0,8.0,70,0.00,,,0.00,65.000000,,2013-11-14 21:02:00,
2013-11-14 16:11:00,38.0,29.0,-100.00,SSE,165,4.0,8.0,70,0.00,,,0.00,65.000000,,2013-11-14 21:11:00,
2013-11-14 16:12:00,38.0,29.0,-100.00,SSW,204,3.0,7.0,71,0.00,,,0.00,31.000000,,2013-11-14 21:12:00,
2013-11-14 16:43:00,38.0,29.0,-100.00,SSW,204,3.0,7.0,71,0.00,,,0.00,31.000000,,2013-11-14 21:43:00,
2013-11-14 16:53:00,38.0,29.0,-100.00,SSW,204,3.0,7.0,71,0.00,,,0.00,31.000000,,2013-11-14 21:53:00,
2013-11-14 17:03:00,38.0,29.0,-100.00,SSW,204,3.0,7.0,71,0.00,,,0.00,31.000000,,2013-11-14 22:03:00,
2013-11-14 17:12:00,37.0,29.0,-100.00,SSE,162,3.0,10.0,72,0.00,,,0.00,12.000000,,2013-11-14 22:12:00,
2013-11-14 17:43:00,37.0,29.0,-100.00,SSE,162,3.0,10.0,72,0.00,,,0.00,12.000000,,2013-11-14 22:43:00,
2013-11-14 17:53:00,37.0,29.0,-100.00,SSE,162,3.0,10.0,72,0.00,,,0.00,12.000000,,2013-11-14 22:53:00,
2013-11-14 18:02:00,37.0,29.0,-100.00,SSE,162,3.0,10.0,72,0.00,,,0.00,12.000000,,2013-11-14 23:02:00,
2013-11-14 18:43:00,34.0,28.0,-100.00,South,176,2.0,8.0,79,0.00,,,0.00,2.000000,,2013-11-14 23:43:00,
2013-11-14 18:52:00,34.0,28.0,-100.00,South,176,2.0,8.0,79,0.00,,,0.00,2.000000,,2013-11-14 23:52:00,
2013-11-14 19:02:00,34.0,28.0,-100.00,South,176,2.0,8.0,79,0.00,,,0.00,2.000000,,2013-11-15 00:02:00,
2013-11-14 19:11:00,34.0,28.0,-100.00,South,176,2.0,8.0,79,0.00,,,0.00,2.000000,,2013-11-15 00:11:00,
2013-11-14 19:12:00,30.0,27.0,-100.00,SSW,209,2.0,5.0,87,0.00,,,0.00,0.000000,,2013-11-15 00:12:00,
2013-11-14 19:42:00,30.0,27.0,-100.00,SSW,209,2.0,5.0,87,0.00,,,0.00,0.000000,,2013-11-15 00:42:00,
2013-11-14 19:52:00,30.0,27.0,-100.00,SSW,209,2.0,5.0,87,0.00,,,0.00,0.000000,,2013-11-15 00:52:00,
2013-11-14 20:01:00,30.0,27.0,-100.00,SSW,209,2.0,5.0,87,0.00,,,0.00,0.000000,,2013-11-15 01:01:00,
2013-11-14 20:12:00,31.0,28.0,-100.00,SW,225,4.0,7.0,88,0.00,,,0.00,0.000000,,2013-11-15 01:12:00,
2013-11-14 20:42:00,31.0,28.0,-100.00,SW,225,4.0,7.0,88,0.00,,,0.00,0.000000,,2013-11-15 01:42:00,
2013-11-14 20:52:00,31.0,28.0,-100.00,SW,225,4.0,7.0,88,0.00,,,0.00,0.000000,,2013-11-15 01:52:00,
2013-11-14 21:02:00,31.0,28.0,-100.00,SW,225,4.0,7.0,88,0.00,,,0.00,0.000000,,2013-11-15 02:02:00,
2013-11-14 21:12:00,31.0,28.0,-100.00,SW,223,4.0,7.0,87,0.00,,,0.00,0.000000,,2013-11-15 02:12:00,
2013-11-14 21:42:00,31.0,28.0,-100.00,SW,223,4.0,7.0,87,0.00,,,0.00,0.000000,,2013-11-15 02:42:00,
2013-11-14 21:52:00,31.0,28.0,-100.00,SW,223,4.0,7.0,87,0.00,,,0.00,0.000000,,2013-11-15 02:52:00,
2013-11-14 22:02:00,31.0,28.0,-100.00,SW,223,4.0,7.0,87,0.00,,,0.00,0.000000,,2013-11-15 03:02:00,
2013-11-14 22:12:00,32.0,28.0,-100.00,WSW,256,4.0,8.0,85,0.00,,,0.00,0.000000,,2013-11-15 03:12:00,
2013-11-14 22:44:00,32.0,28.0,-100.00,WSW,256,4.0,8.0,85,0.00,,,0.00,0.000000,,2013-11-15 03:44:00,
2013-11-14 22:54:00,32.0,28.0,-100.00,WSW,256,4.0,8.0,85,0.00,,,0.00,0.000000,,2013-11-15 03:54:00,
2013-11-14 23:04:00,32.0,28.0,-100.00,WSW,256,4.0,8.0,85,0.00,,,0.00,0.000000,,2013-11-15 04:04:00,
2013-11-14 23:12:00,33.0,28.0,-100.00,West,259,4.0,9.0,80,0.00,,,0.00,0.000000,,2013-11-15 04:12:00,
2013-11-14 23:43:00,33.0,28.0,-100.00,West,259,4.0,9.0,80,0.00,,,0.00,0.000000,,2013-11-15 04:43:00,
2013-11-14 23:53:00,33.0,28.0,-100.00,West,259,4.0,9.0,80,0.00,,,0.00,0.000000,,2013-11-15 04:53:00,